Location: Azalea Creek
(37.1280°N, 119.2623°W)
Time: 11:35:30
(UTC+00:00)

Cosmos 1943 Rocket - Pass Details

Date: 17 February 2020
Orbit: 813 x 842 km, 71.0° (Epoch: 08 April)

Event Time Altitude Azimuth Distance (km) Brightness Sun altitude
Rises 04:04:43 0° 221° (SW) 3,366 5.8 -29.9°
Reaches altitude 10° 04:07:19 10° 229° (SW) 2,432 5.0 -30.4°
Maximum altitude 04:12:30 39° 298° (WNW) 1,226 3.4 -31.4°
Enters shadow 04:15:32 22° 353° (N) 1,735 3.9 -32.0°
